Time,TemperatureF,DewpointF,PressureIn,WindDirection,WindDirectionDegrees,WindSpeedMPH,WindSpeedGustMPH,Humidity,HourlyPrecipIn,Conditions,Clouds,dailyrainin,SolarRadiationWatts/m^2,SoftwareType,DateUTC
2013-02-27 00:00:00,38.8,36.4,29.48,South,169,8.0,8.0,91,0.00,,,0.79,0,Wunderground v.1.15,2013-02-27 05:00:00,
2013-02-27 00:06:00,38.7,36.0,29.48,SSW,207,6.0,8.0,90,0.00,,,0.00,0,Wunderground v.1.15,2013-02-27 05:06:00,
2013-02-27 00:10:00,38.7,36.0,29.48,SSW,202,6.0,7.0,90,0.00,,,0.00,0,Wunderground v.1.15,2013-02-27 05:10:00,
2013-02-27 00:15:00,38.7,36.0,29.48,SSW,205,6.0,7.0,90,0.00,,,0.00,0,Wunderground v.1.15,2013-02-27 05:15:00,
2013-02-27 00:21:00,38.7,36.3,29.49,SSW,207,6.0,6.0,91,0.00,,,0.00,0,Wunderground v.1.15,2013-02-27 05:21:00,
2013-02-27 00:30:00,38.6,36.2,29.49,SSW,205,6.0,6.0,91,0.00,,,0.00,0,Wunderground v.1.15,2013-02-27 05:30:00,
2013-02-27 00:40:00,38.6,36.2,29.49,WSW,239,6.0,10.0,91,0.00,,,0.00,0,Wunderground v.1.15,2013-02-27 05:40:00,
2013-02-27 00:45:00,38.7,36.3,29.50,SW,228,6.0,10.0,91,0.00,,,0.00,0,Wunderground v.1.15,2013-02-27 05:45:00,
2013-02-27 00:51:00,38.6,35.9,29.50,South,186,6.0,8.0,90,0.00,,,0.00,0,Wunderground v.1.15,2013-02-27 05:51:00,
2013-02-27 01:00:00,38.6,36.2,29.50,SSW,213,5.0,9.0,91,0.00,,,0.00,0,Wunderground v.1.15,2013-02-27 06:00:00,
2013-02-27 01:06:00,38.6,36.2,29.50,SW,224,8.0,9.0,91,0.00,,,0.00,0,Wunderground v.1.15,2013-02-27 06:06:00,
2013-02-27 01:15:00,38.7,36.3,29.50,SSW,193,6.0,9.0,91,0.00,,,0.00,0,Wunderground v.1.15,2013-02-27 06:15:00,
2013-02-27 01:21:00,38.7,36.0,29.50,SW,214,5.0,5.0,90,0.00,,,0.00,0,Wunderground v.1.15,2013-02-27 06:21:00,
2013-02-27 01:30:00,38.6,36.2,29.50,SSW,199,6.0,7.0,91,0.00,,,0.00,0,Wunderground v.1.15,2013-02-27 06:30:00,
2013-02-27 01:35:00,38.6,36.2,29.50,SW,216,6.0,7.0,91,0.00,,,0.00,0,Wunderground v.1.15,2013-02-27 06:35:00,
2013-02-27 01:41:00,38.6,36.2,29.50,South,191,6.0,7.0,91,0.00,,,0.00,0,Wunderground v.1.15,2013-02-27 06:41:00,
2013-02-27 01:46:00,38.6,36.2,29.50,SSW,213,6.0,7.0,91,0.00,,,0.00,0,Wunderground v.1.15,2013-02-27 06:46:00,
2013-02-27 01:56:00,38.6,35.9,29.51,South,190,6.0,7.0,90,0.00,,,0.00,0,Wunderground v.1.15,2013-02-27 06:56:00,
2013-02-27 02:05:00,38.6,36.2,29.51,SW,232,6.0,7.0,91,0.00,,,0.00,0,Wunderground v.1.15,2013-02-27 07:05:00,
2013-02-27 02:11:00,38.5,36.1,29.51,SSW,205,5.0,5.0,91,0.00,,,0.00,0,Wunderground v.1.15,2013-02-27 07:11:00,
2013-02-27 02:20:00,38.5,36.1,29.51,SSW,202,6.0,6.0,91,0.00,,,0.00,0,Wunderground v.1.15,2013-02-27 07:20:00,
2013-02-27 02:25:00,38.4,36.0,29.51,South,180,5.0,6.0,91,0.00,,,0.00,0,Wunderground v.1.15,2013-02-27 07:25:00,
2013-02-27 02:35:00,38.3,35.9,29.52,South,178,5.0,6.0,91,0.00,,,0.00,0,Wunderground v.1.15,2013-02-27 07:35:00,
2013-02-27 02:40:00,38.3,36.2,29.52,SW,234,5.0,6.0,92,0.00,,,0.00,0,Wunderground v.1.15,2013-02-27 07:40:00,
2013-02-27 02:46:00,38.3,35.9,29.52,South,179,7.0,7.0,91,0.00,,,0.00,0,Wunderground v.1.15,2013-02-27 07:46:00,
2013-02-27 02:56:00,38.3,35.9,29.52,SW,219,6.0,10.0,91,0.00,,,0.00,0,Wunderground v.1.15,2013-02-27 07:56:00,
2013-02-27 03:05:00,38.3,35.9,29.52,South,177,7.0,7.0,91,0.00,,,0.00,0,Wunderground v.1.15,2013-02-27 08:05:00,
2013-02-27 03:15:00,38.2,36.1,29.52,South,175,6.0,10.0,92,0.00,,,0.00,0,Wunderground v.1.15,2013-02-27 08:15:00,
2013-02-27 03:20:00,38.2,36.1,29.52,WSW,254,7.0,9.0,92,0.00,,,0.00,0,Wunderground v.1.15,2013-02-27 08:20:00,
2013-02-27 03:25:00,38.2,36.1,29.52,SSW,195,7.0,13.0,92,0.00,,,0.00,0,Wunderground v.1.15,2013-02-27 08:25:00,
2013-02-27 03:31:00,38.2,36.1,29.52,West,261,8.0,8.0,92,0.00,,,0.00,0,Wunderground v.1.15,2013-02-27 08:31:00,
2013-02-27 03:40:00,38.2,36.1,29.52,SW,217,9.0,9.0,92,0.00,,,0.00,0,Wunderground v.1.15,2013-02-27 08:40:00,
2013-02-27 03:46:00,38.3,35.9,29.52,SW,219,8.0,9.0,91,0.00,,,0.00,0,Wunderground v.1.15,2013-02-27 08:46:00,
2013-02-27 03:55:00,38.2,35.8,29.53,WSW,249,7.0,16.0,91,0.00,,,0.00,0,Wunderground v.1.15,2013-02-27 08:55:00,
2013-02-27 04:01:00,38.2,35.8,29.53,SW,232,7.0,8.0,91,0.00,,,0.00,0,Wunderground v.1.15,2013-02-27 09:01:00,
2013-02-27 04:10:00,38.0,35.9,29.53,SSW,213,7.0,7.0,92,0.00,,,0.00,0,Wunderground v.1.15,2013-02-27 09:10:00,
2013-02-27 04:16:00,37.9,35.8,29.53,SSE,163,7.0,7.0,92,0.00,,,0.00,0,Wunderground v.1.15,2013-02-27 09:16:00,
2013-02-27 04:25:00,37.8,35.7,29.54,SW,217,8.0,10.0,92,0.00,,,0.00,0,Wunderground v.1.15,2013-02-27 09:25:00,
2013-02-27 04:35:00,37.8,35.7,29.54,West,260,6.0,8.0,92,0.00,,,0.00,0,Wunderground v.1.15,2013-02-27 09:35:00,
2013-02-27 04:40:00,37.7,35.6,29.54,WNW,302,5.0,5.0,92,0.00,,,0.00,0,Wunderground v.1.15,2013-02-27 09:40:00,
2013-02-27 04:46:00,37.7,35.6,29.54,SSE,152,6.0,6.0,92,0.00,,,0.00,0,Wunderground v.1.15,2013-02-27 09:46:00,
2013-02-27 04:55:00,37.7,35.6,29.55,SW,221,6.0,7.0,92,0.00,,,0.00,0,Wunderground v.1.15,2013-02-27 09:55:00,
2013-02-27 05:00:00,37.6,35.5,29.55,SW,232,6.0,7.0,92,0.00,,,0.00,0,Wunderground v.1.15,2013-02-27 10:00:00,
2013-02-27 05:10:00,37.5,35.4,29.55,SSW,211,6.0,6.0,92,0.00,,,0.00,0,Wunderground v.1.15,2013-02-27 10:10:00,
2013-02-27 05:15:00,37.5,35.4,29.55,SSW,200,5.0,6.0,92,0.00,,,0.00,0,Wunderground v.1.15,2013-02-27 10:15:00,
2013-02-27 05:25:00,37.4,35.3,29.55,SSE,157,5.0,5.0,92,0.00,,,0.00,0,Wunderground v.1.15,2013-02-27 10:25:00,
2013-02-27 05:31:00,37.5,35.1,29.55,West,264,4.0,9.0,91,0.00,,,0.00,0,Wunderground v.1.15,2013-02-27 10:31:00,
2013-02-27 05:40:00,37.4,35.0,29.56,WSW,250,6.0,6.0,91,0.00,,,0.00,0,Wunderground v.1.15,2013-02-27 10:40:00,
2013-02-27 05:46:00,37.4,34.7,29.56,WSW,250,7.0,7.0,90,0.00,,,0.00,0,Wunderground v.1.15,2013-02-27 10:46:00,
2013-02-27 05:55:00,37.2,34.8,29.56,SW,234,5.0,9.0,91,0.00,,,0.00,0,Wunderground v.1.15,2013-02-27 10:55:00,
2013-02-27 06:01:00,37.1,34.7,29.56,SSW,212,6.0,6.0,91,0.00,,,0.00,0,Wunderground v.1.15,2013-02-27 11:01:00,
2013-02-27 06:10:00,36.9,34.5,29.57,SW,219,5.0,5.0,91,0.00,,,0.00,0,Wunderground v.1.15,2013-02-27 11:10:00,
2013-02-27 06:15:00,36.8,34.7,29.57,SW,231,6.0,7.0,92,0.00,,,0.00,0,Wunderground v.1.15,2013-02-27 11:15:00,
2013-02-27 06:25:00,36.6,34.5,29.57,SW,235,6.0,6.0,92,0.00,,,0.00,0,Wunderground v.1.15,2013-02-27 11:25:00,
2013-02-27 06:31:00,36.5,34.7,29.58,SW,223,6.0,6.0,93,0.00,,,0.00,0,Wunderground v.1.15,2013-02-27 11:31:00,
2013-02-27 06:40:00,36.4,34.6,29.58,WSW,242,5.0,5.0,93,0.00,,,0.01,0,Wunderground v.1.15,2013-02-27 11:40:00,
2013-02-27 06:45:00,36.3,34.5,29.59,SW,236,6.0,6.0,93,0.00,,,0.01,0,Wunderground v.1.15,2013-02-27 11:45:00,
2013-02-27 06:55:00,36.1,34.3,29.59,SW,225,7.0,9.0,93,0.00,,,0.01,0,Wunderground v.1.15,2013-02-27 11:55:00,
2013-02-27 07:01:00,35.9,34.1,29.60,WNW,286,7.0,9.0,93,0.00,,,0.01,0,Wunderground v.1.15,2013-02-27 12:01:00,
2013-02-27 07:10:00,35.6,33.8,29.60,SW,217,6.0,8.0,93,0.00,,,0.01,0,Wunderground v.1.15,2013-02-27 12:10:00,
2013-02-27 07:15:00,35.5,33.7,29.60,SW,222,5.0,8.0,93,0.00,,,0.01,0,Wunderground v.1.15,2013-02-27 12:15:00,
2013-02-27 07:25:00,35.3,33.2,29.60,WSW,254,4.0,5.0,92,0.00,,,0.01,0,Wunderground v.1.15,2013-02-27 12:25:00,
2013-02-27 07:31:00,35.2,33.1,29.60,SSW,196,5.0,5.0,92,0.00,,,0.01,0,Wunderground v.1.15,2013-02-27 12:31:00,
2013-02-27 07:40:00,35.2,33.1,29.60,WSW,250,6.0,8.0,92,0.00,,,0.01,0,Wunderground v.1.15,2013-02-27 12:40:00,
2013-02-27 07:45:00,35.2,33.1,29.60,WSW,246,6.0,8.0,92,0.00,,,0.01,0,Wunderground v.1.15,2013-02-27 12:45:00,
2013-02-27 07:55:00,35.2,33.1,29.61,SW,234,6.0,7.0,92,0.00,,,0.01,0,Wunderground v.1.15,2013-02-27 12:55:00,
2013-02-27 08:01:00,35.1,33.0,29.61,South,187,6.0,6.0,92,0.00,,,0.01,0,Wunderground v.1.15,2013-02-27 13:01:00,
2013-02-27 08:10:00,35.0,33.2,29.61,SW,223,4.0,5.0,93,0.00,,,0.01,7,Wunderground v.1.15,2013-02-27 13:10:00,
2013-02-27 08:15:00,35.0,33.2,29.61,SW,225,4.0,5.0,93,0.00,,,0.01,9,Wunderground v.1.15,2013-02-27 13:15:00,
2013-02-27 08:20:00,34.9,33.1,29.62,SSW,195,4.0,5.0,93,0.00,,,0.01,7,Wunderground v.1.15,2013-02-27 13:20:00,
2013-02-27 08:30:00,34.9,33.1,29.62,South,186,5.0,5.0,93,0.00,,,0.01,14,Wunderground v.1.15,2013-02-27 13:30:00,
2013-02-27 08:35:00,35.0,33.2,29.62,West,274,5.0,8.0,93,0.00,,,0.01,14,Wunderground v.1.15,2013-02-27 13:35:00,
2013-02-27 08:45:00,35.0,33.2,29.63,SW,229,5.0,6.0,93,0.00,,,0.01,25,Wunderground v.1.15,2013-02-27 13:45:00,
2013-02-27 08:50:00,35.0,32.9,29.62,SW,231,6.0,9.0,92,0.00,,,0.01,33,Wunderground v.1.15,2013-02-27 13:50:00,
2013-02-27 08:56:00,35.1,33.0,29.63,South,188,6.0,9.0,92,0.00,,,0.01,40,Wunderground v.1.15,2013-02-27 13:56:00,
2013-02-27 09:05:00,35.4,33.0,29.63,South,185,3.0,6.0,91,0.00,,,0.01,28,Wunderground v.1.15,2013-02-27 14:05:00,
2013-02-27 09:10:00,35.4,32.8,29.64,WSW,242,7.0,8.0,90,0.00,,,0.01,28,Wunderground v.1.15,2013-02-27 14:10:00,
2013-02-27 09:15:00,35.4,32.8,29.64,SSW,196,7.0,11.0,90,0.00,,,0.01,35,Wunderground v.1.15,2013-02-27 14:15:00,
2013-02-27 09:20:00,35.4,32.8,29.64,SSW,202,8.0,8.0,90,0.00,,,0.01,30,Wunderground v.1.15,2013-02-27 14:20:00,
2013-02-27 09:25:00,35.3,32.7,29.64,South,181,7.0,8.0,90,0.00,,,0.01,35,Wunderground v.1.15,2013-02-27 14:25:00,
2013-02-27 09:35:00,35.1,32.5,29.64,SW,219,8.0,11.0,90,0.00,,,0.01,42,Wunderground v.1.15,2013-02-27 14:35:00,
2013-02-27 09:40:00,35.1,32.5,29.64,SW,226,7.0,7.0,90,0.00,,,0.01,65,Wunderground v.1.15,2013-02-27 14:40:00,
2013-02-27 09:45:00,35.1,32.5,29.64,SSW,197,6.0,7.0,90,0.00,,,0.01,74,Wunderground v.1.15,2013-02-27 14:45:00,
2013-02-27 09:50:00,35.2,32.3,29.64,SW,227,6.0,9.0,89,0.00,,,0.01,69,Wunderground v.1.15,2013-02-27 14:50:00,
2013-02-27 09:55:00,35.3,32.4,29.64,SSW,199,7.0,9.0,89,0.00,,,0.01,77,Wunderground v.1.15,2013-02-27 14:55:00,
2013-02-27 10:00:00,35.4,32.5,29.64,SSW,197,6.0,6.0,89,0.00,,,0.01,83,Wunderground v.1.15,2013-02-27 15:00:00,
2013-02-27 10:06:00,35.5,32.6,29.64,SSW,202,5.0,8.0,89,0.00,,,0.01,70,Wunderground v.1.15,2013-02-27 15:06:00,
2013-02-27 10:15:00,35.6,32.7,29.64,South,191,6.0,6.0,89,0.00,,,0.01,84,Wunderground v.1.15,2013-02-27 15:15:00,
2013-02-27 10:20:00,35.6,32.7,29.64,SW,226,7.0,7.0,89,0.00,,,0.01,98,Wunderground v.1.15,2013-02-27 15:20:00,
2013-02-27 10:26:00,35.7,32.5,29.65,SW,226,7.0,7.0,88,0.00,,,0.01,109,Wunderground v.1.15,2013-02-27 15:26:00,
2013-02-27 10:35:00,35.8,32.0,29.64,SW,234,8.0,10.0,86,0.00,,,0.01,171,Wunderground v.1.15,2013-02-27 15:35:00,
2013-02-27 10:41:00,36.0,32.2,29.64,SSW,198,7.0,7.0,86,0.00,,,0.01,155,Wunderground v.1.15,2013-02-27 15:41:00,
2013-02-27 10:50:00,36.1,32.3,29.64,SW,233,7.0,7.0,86,0.00,,,0.01,137,Wunderground v.1.15,2013-02-27 15:50:00,
2013-02-27 10:56:00,36.1,32.0,29.64,SSW,208,7.0,9.0,85,0.00,,,0.01,178,Wunderground v.1.15,2013-02-27 15:56:00,
2013-02-27 11:05:00,35.9,31.8,29.64,SSW,198,7.0,8.0,85,0.00,,,0.01,65,Wunderground v.1.15,2013-02-27 16:05:00,
2013-02-27 11:11:00,35.7,31.9,29.65,WNW,284,8.0,8.0,86,0.00,,,0.01,62,Wunderground v.1.15,2013-02-27 16:11:00,
2013-02-27 11:20:00,35.4,31.6,29.65,South,184,9.0,9.0,86,0.00,,,0.01,77,Wunderground v.1.15,2013-02-27 16:20:00,
2013-02-27 11:25:00,35.3,31.8,29.65,South,186,8.0,9.0,87,0.00,,,0.01,102,Wunderground v.1.15,2013-02-27 16:25:00,
2013-02-27 11:31:00,35.4,31.9,29.65,WSW,256,8.0,8.0,87,0.00,,,0.01,86,Wunderground v.1.15,2013-02-27 16:31:00,
2013-02-27 11:36:00,35.4,31.9,29.65,SW,215,8.0,8.0,87,0.00,,,0.01,65,Wunderground v.1.15,2013-02-27 16:36:00,
2013-02-27 11:45:00,35.5,32.0,29.65,SW,226,7.0,9.0,87,0.00,,,0.01,49,Wunderground v.1.15,2013-02-27 16:45:00,
2013-02-27 11:51:00,35.6,32.1,29.65,West,259,7.0,7.0,87,0.00,,,0.01,86,Wunderground v.1.15,2013-02-27 16:51:00,
2013-02-27 12:00:00,35.7,31.9,29.65,WSW,245,7.0,7.0,86,0.00,,,0.01,83,Wunderground v.1.15,2013-02-27 17:00:00,
2013-02-27 12:05:00,35.7,31.9,29.65,South,176,8.0,12.0,86,0.00,,,0.01,90,Wunderground v.1.15,2013-02-27 17:05:00,
2013-02-27 12:15:00,35.9,31.8,29.65,SSE,164,7.0,10.0,85,0.00,,,0.01,186,Wunderground v.1.15,2013-02-27 17:15:00,
2013-02-27 12:20:00,36.1,32.0,29.65,West,261,8.0,10.0,85,0.00,,,0.01,221,Wunderground v.1.15,2013-02-27 17:20:00,
2013-02-27 12:30:00,37.2,32.8,29.65,SSW,202,9.0,9.0,84,0.00,,,0.01,301,Wunderground v.1.15,2013-02-27 17:30:00,
2013-02-27 12:35:00,37.5,32.5,29.65,SW,217,8.0,9.0,82,0.00,,,0.01,388,Wunderground v.1.15,2013-02-27 17:35:00,
2013-02-27 12:41:00,37.3,32.3,29.65,SW,223,7.0,11.0,82,0.00,,,0.01,56,Wunderground v.1.15,2013-02-27 17:41:00,
2013-02-27 12:50:00,36.5,31.5,29.64,SSW,199,8.0,8.0,82,0.00,,,0.01,33,Wunderground v.1.15,2013-02-27 17:50:00,
2013-02-27 12:55:00,36.3,31.3,29.64,SW,224,7.0,8.0,82,0.00,,,0.01,123,Wunderground v.1.15,2013-02-27 17:55:00,
2013-02-27 13:00:00,36.5,31.8,29.64,SSW,209,6.0,6.0,83,0.00,,,0.01,192,Wunderground v.1.15,2013-02-27 18:00:00,
2013-02-27 13:06:00,36.8,31.8,29.64,SW,217,6.0,8.0,82,0.00,,,0.01,250,Wunderground v.1.15,2013-02-27 18:06:00,
2013-02-27 13:15:00,36.9,31.3,29.64,WNW,291,7.0,7.0,80,0.00,,,0.01,54,Wunderground v.1.15,2013-02-27 18:15:00,
2013-02-27 13:21:00,36.8,31.2,29.64,WSW,244,7.0,14.0,80,0.00,,,0.01,56,Wunderground v.1.15,2013-02-27 18:21:00,
2013-02-27 13:30:00,36.7,31.1,29.64,SW,221,8.0,8.0,80,0.00,,,0.01,72,Wunderground v.1.15,2013-02-27 18:30:00,
2013-02-27 13:35:00,36.7,30.8,29.64,SW,236,7.0,8.0,79,0.00,,,0.01,98,Wunderground v.1.15,2013-02-27 18:35:00,
2013-02-27 13:41:00,36.7,30.8,29.64,West,281,6.0,7.0,79,0.00,,,0.01,163,Wunderground v.1.15,2013-02-27 18:41:00,
2013-02-27 13:50:00,36.9,30.7,29.63,WSW,243,6.0,8.0,78,0.00,,,0.01,84,Wunderground v.1.15,2013-02-27 18:50:00,
2013-02-27 13:55:00,36.9,30.7,29.64,SW,221,6.0,10.0,78,0.00,,,0.01,97,Wunderground v.1.15,2013-02-27 18:55:00,
2013-02-27 14:00:00,36.9,30.4,29.63,West,267,6.0,6.0,77,0.00,,,0.01,100,Wunderground v.1.15,2013-02-27 19:00:00,
2013-02-27 14:06:00,37.0,30.5,29.63,SW,236,7.0,10.0,77,0.00,,,0.01,111,Wunderground v.1.15,2013-02-27 19:06:00,
2013-02-27 14:15:00,37.3,30.7,29.63,SW,224,7.0,7.0,77,0.00,,,0.01,236,Wunderground v.1.15,2013-02-27 19:15:00,
2013-02-27 16:45:00,36.3,29.8,29.66,West,275,7.0,8.0,77,0.00,,,0.01,30,Wunderground v.1.15,2013-02-27 21:45:00,
2013-02-27 16:50:00,35.8,29.9,29.66,SW,219,7.0,7.0,79,0.00,,,0.01,37,Wunderground v.1.15,2013-02-27 21:50:00,
2013-02-27 16:56:00,35.4,30.5,29.66,SSW,210,6.0,7.0,82,0.00,,,0.01,84,Wunderground v.1.15,2013-02-27 21:56:00,
2013-02-27 17:01:00,35.3,30.7,29.66,SE,143,5.0,5.0,83,0.00,,,0.01,125,Wunderground v.1.15,2013-02-27 22:01:00,
2013-02-27 17:10:00,35.4,31.0,29.66,SSW,211,5.0,5.0,84,0.00,,,0.01,104,Wunderground v.1.15,2013-02-27 22:10:00,
2013-02-27 17:15:00,35.5,31.1,29.66,West,275,5.0,8.0,84,0.00,,,0.01,109,Wunderground v.1.15,2013-02-27 22:15:00,
2013-02-27 17:21:00,35.5,31.1,29.66,WSW,246,5.0,6.0,84,0.00,,,0.01,104,Wunderground v.1.15,2013-02-27 22:21:00,
2013-02-27 17:26:00,35.7,31.6,29.66,SW,221,4.0,6.0,85,0.00,,,0.01,118,Wunderground v.1.15,2013-02-27 22:26:00,
2013-02-27 17:31:00,35.7,31.6,29.66,South,190,4.0,6.0,85,0.00,,,0.01,79,Wunderground v.1.15,2013-02-27 22:31:00,
2013-02-27 17:40:00,35.9,31.2,29.67,SW,216,6.0,6.0,83,0.00,,,0.01,42,Wunderground v.1.15,2013-02-27 22:40:00,
2013-02-27 17:45:00,36.0,31.3,29.67,South,184,5.0,6.0,83,0.00,,,0.01,23,Wunderground v.1.15,2013-02-27 22:45:00,
2013-02-27 17:50:00,36.0,31.3,29.67,SW,227,4.0,7.0,83,0.00,,,0.01,14,Wunderground v.1.15,2013-02-27 22:50:00,
2013-02-27 18:00:00,35.8,31.1,29.67,WSW,237,5.0,7.0,83,0.00,,,0.01,23,Wunderground v.1.15,2013-02-27 23:00:00,
2013-02-27 18:10:00,35.3,31.2,29.68,SSW,213,5.0,7.0,85,0.00,,,0.01,0,Wunderground v.1.15,2013-02-27 23:10:00,
2013-02-27 18:15:00,35.0,31.2,29.68,SW,229,4.0,7.0,86,0.00,,,0.01,0,Wunderground v.1.15,2013-02-27 23:15:00,
2013-02-27 18:20:00,34.5,31.0,29.68,WSW,250,4.0,4.0,87,0.00,,,0.01,0,Wunderground v.1.15,2013-02-27 23:20:00,
2013-02-27 18:26:00,34.2,31.0,29.69,WSW,239,4.0,4.0,88,0.00,,,0.01,0,Wunderground v.1.15,2013-02-27 23:26:00,
2013-02-27 18:36:00,33.9,31.3,29.69,WSW,249,4.0,6.0,90,0.00,,,0.01,0,Wunderground v.1.15,2013-02-27 23:36:00,
2013-02-27 18:45:00,33.9,31.3,29.69,South,183,5.0,5.0,90,0.00,,,0.01,0,Wunderground v.1.15,2013-02-27 23:45:00,
2013-02-27 18:50:00,33.9,31.3,29.69,SW,219,4.0,4.0,90,0.00,,,0.01,0,Wunderground v.1.15,2013-02-27 23:50:00,
2013-02-27 19:00:00,33.9,31.3,29.69,WSW,237,4.0,4.0,90,0.00,,,0.01,0,Wunderground v.1.15,2013-02-28 00:00:00,
2013-02-27 19:10:00,33.9,31.3,29.69,SSW,212,4.0,4.0,90,0.00,,,0.01,0,Wunderground v.1.15,2013-02-28 00:10:00,
2013-02-27 19:21:00,33.9,31.3,29.69,WSW,239,4.0,4.0,90,0.00,,,0.01,0,Wunderground v.1.15,2013-02-28 00:21:00,
2013-02-27 19:26:00,33.8,31.5,29.69,South,185,4.0,6.0,91,0.00,,,0.01,0,Wunderground v.1.15,2013-02-28 00:26:00,
2013-02-27 19:35:00,33.6,31.3,29.70,SW,216,5.0,5.0,91,0.00,,,0.01,0,Wunderground v.1.15,2013-02-28 00:35:00,
2013-02-27 19:40:00,33.4,31.1,29.70,SSW,195,4.0,4.0,91,0.00,,,0.01,0,Wunderground v.1.15,2013-02-28 00:40:00,
2013-02-27 19:45:00,33.3,31.2,29.70,SW,236,4.0,4.0,92,0.00,,,0.01,0,Wunderground v.1.15,2013-02-28 00:45:00,
2013-02-27 19:55:00,33.2,31.4,29.70,SW,227,4.0,5.0,93,0.00,,,0.01,0,Wunderground v.1.15,2013-02-28 00:55:00,
2013-02-27 20:05:00,33.2,31.4,29.70,SSW,193,4.0,5.0,93,0.00,,,0.02,0,Wunderground v.1.15,2013-02-28 01:05:00,
2013-02-27 20:15:00,33.2,31.4,29.70,WSW,238,4.0,8.0,93,0.00,,,0.02,0,Wunderground v.1.15,2013-02-28 01:15:00,
2013-02-27 20:20:00,33.2,31.4,29.70,West,259,5.0,8.0,93,0.00,,,0.02,0,Wunderground v.1.15,2013-02-28 01:20:00,
2013-02-27 20:25:00,33.1,31.3,29.70,SW,233,6.0,8.0,93,0.00,,,0.02,0,Wunderground v.1.15,2013-02-28 01:25:00,
2013-02-27 20:30:00,33.0,31.2,29.70,SW,215,6.0,6.0,93,0.00,,,0.02,0,Wunderground v.1.15,2013-02-28 01:30:00,
2013-02-27 20:35:00,33.0,31.2,29.70,SW,218,4.0,6.0,93,0.00,,,0.02,0,Wunderground v.1.15,2013-02-28 01:35:00,
2013-02-27 20:46:00,32.8,31.0,29.70,SW,228,4.0,4.0,93,0.00,,,0.02,0,Wunderground v.1.15,2013-02-28 01:46:00,
2013-02-27 20:51:00,32.8,31.0,29.70,WNW,290,4.0,4.0,93,0.00,,,0.02,0,Wunderground v.1.15,2013-02-28 01:51:00,
2013-02-27 21:01:00,32.7,30.9,29.70,WSW,249,4.0,4.0,93,0.00,,,0.02,0,Wunderground v.1.15,2013-02-28 02:01:00,
2013-02-27 21:10:00,32.6,30.8,29.70,South,189,4.0,7.0,93,0.00,,,0.02,0,Wunderground v.1.15,2013-02-28 02:10:00,
2013-02-27 21:16:00,32.6,30.8,29.70,West,265,4.0,7.0,93,0.00,,,0.02,0,Wunderground v.1.15,2013-02-28 02:16:00,
2013-02-27 21:21:00,32.6,30.5,29.70,West,261,6.0,7.0,92,0.00,,,0.02,0,Wunderground v.1.15,2013-02-28 02:21:00,
2013-02-27 21:26:00,32.6,30.5,29.70,WSW,247,5.0,7.0,92,0.00,,,0.02,0,Wunderground v.1.15,2013-02-28 02:26:00,
2013-02-27 21:31:00,32.7,30.6,29.70,WNW,290,4.0,4.0,92,0.00,,,0.02,0,Wunderground v.1.15,2013-02-28 02:31:00,
2013-02-27 21:41:00,32.7,30.4,29.71,SW,232,5.0,6.0,91,0.00,,,0.02,0,Wunderground v.1.15,2013-02-28 02:41:00,
2013-02-27 21:50:00,32.7,30.4,29.71,WSW,254,5.0,5.0,91,0.00,,,0.02,0,Wunderground v.1.15,2013-02-28 02:50:00,
2013-02-27 21:56:00,32.7,30.1,29.71,West,278,5.0,5.0,90,0.00,,,0.02,0,Wunderground v.1.15,2013-02-28 02:56:00,
2013-02-27 22:01:00,32.7,30.1,29.71,WSW,251,4.0,5.0,90,0.00,,,0.02,0,Wunderground v.1.15,2013-02-28 03:01:00,
2013-02-27 22:06:00,32.7,30.1,29.71,West,277,4.0,5.0,90,0.00,,,0.02,0,Wunderground v.1.15,2013-02-28 03:06:00,
2013-02-27 22:16:00,32.7,30.1,29.71,West,264,5.0,7.0,90,0.00,,,0.02,0,Wunderground v.1.15,2013-02-28 03:16:00,
2013-02-27 22:26:00,32.7,29.8,29.71,SW,236,5.0,6.0,89,0.00,,,0.02,0,Wunderground v.1.15,2013-02-28 03:26:00,
2013-02-27 22:35:00,32.8,29.9,29.71,West,272,4.0,5.0,89,0.00,,,0.02,0,Wunderground v.1.15,2013-02-28 03:35:00,
2013-02-27 22:40:00,32.8,29.9,29.71,West,273,5.0,6.0,89,0.00,,,0.02,0,Wunderground v.1.15,2013-02-28 03:40:00,
2013-02-27 22:45:00,32.8,29.9,29.71,West,259,5.0,6.0,89,0.00,,,0.02,0,Wunderground v.1.15,2013-02-28 03:45:00,
2013-02-27 22:55:00,32.8,29.9,29.71,WNW,294,5.0,5.0,89,0.00,,,0.02,0,Wunderground v.1.15,2013-02-28 03:55:00,
2013-02-27 23:01:00,32.8,29.9,29.71,WNW,292,4.0,8.0,89,0.00,,,0.02,0,Wunderground v.1.15,2013-02-28 04:01:00,
2013-02-27 23:11:00,32.7,29.8,29.71,WNW,298,4.0,4.0,89,0.00,,,0.02,0,Wunderground v.1.15,2013-02-28 04:11:00,
2013-02-27 23:16:00,32.7,29.8,29.71,West,261,4.0,6.0,89,0.00,,,0.02,0,Wunderground v.1.15,2013-02-28 04:16:00,
2013-02-27 23:25:00,32.7,30.1,29.71,WSW,239,4.0,8.0,90,0.00,,,0.02,0,Wunderground v.1.15,2013-02-28 04:25:00,
2013-02-27 23:30:00,32.6,30.0,29.71,West,269,4.0,5.0,90,0.00,,,0.02,0,Wunderground v.1.15,2013-02-28 04:30:00,
2013-02-27 23:40:00,32.6,30.0,29.70,WSW,253,5.0,5.0,90,0.00,,,0.02,0,Wunderground v.1.15,2013-02-28 04:40:00,
2013-02-27 23:50:00,32.6,30.0,29.70,SW,227,4.0,4.0,90,0.00,,,0.02,0,Wunderground v.1.15,2013-02-28 04:50:00,
2013-02-27 23:55:00,32.5,29.9,29.70,SW,217,4.0,4.0,90,0.00,,,0.02,0,Wunderground v.1.15,2013-02-28 04:55:00,